DW6282 Weather Reports


Display with metric or nautical units.
time (UTC)temp
F
wind
direction
speed
MPH
gust
MPH
rain 1hr
in
rain 24hr
in
rain mn
in
humidity
%
barometer
mb
20260905230022 87 208 0.0 1.0 0.00 0.55 0.54 80 1010.1
20260905224519 87 210 0.0 4.0 0.00 0.55 0.54 79 1010.1
20260905223018 88 211 0.0 3.0 0.00 0.55 0.54 79 1010.0
20260905221518 88 141 0.0 4.0 0.00 0.55 0.54 79 1009.9
20260905220017 89 204 0.0 6.0 0.00 0.55 0.54 78 1009.9
20260905214515 90 205 0.0 3.0 0.00 0.55 0.54 77 1010.1
20260905213013 91 214 0.0 3.0 0.00 0.55 0.54 76 1010.1
20260905211515 92 74 0.0 3.0 0.00 0.55 0.54 74 1010.2
20260905210010 91 21 0.0 3.0 0.00 0.55 0.54 77 1010.2
20260905204504 89 205 0.0 4.0 0.00 0.55 0.54 82 1010.3
20260905203002 85 255 0.0 3.0 0.00 0.55 0.54 96 1010.6
20260905201502 82 207 0.0 2.0 0.00 0.55 0.54 96 1010.7
20260905194559 81 120 0.0 1.0 0.00 0.55 0.54 97 1010.9
20260905193112 80 179 0.0 0.0 0.00 0.55 0.54 97 1011.0
20260905191557 81 179 0.0 0.0 0.00 0.55 0.54 97 1011.4
20260905190100 81 179 0.0 0.0 0.00 0.55 0.54 97 1011.7
20260905184557 81 179 0.0 0.0 0.00 0.55 0.54 98 1011.8
20260905183055 81 91 0.0 2.0 0.00 0.55 0.54 98 1012.0
20260905181607 80 210 0.0 0.0 0.02 0.55 0.54 98 1012.2
20260905180054 78 210 0.0 1.0 0.16 0.55 0.54 98 1012.2
20260905174602 76 213 0.0 4.0 0.37 0.55 0.54 97 1012.7
20260905173055 77 261 0.0 3.0 0.37 0.55 0.54 97 1013.0
20260905171551 77 91 1.0 3.0 0.35 0.53 0.52 97 1013.2
20260905170050 78 96 0.0 3.0 0.18 0.36 0.35 97 1013.4
20260905164546 79 22 0.0 2.0 0.08 0.18 0.17 97 1013.2
20260905163044 79 12 6.0 10.0 0.17 0.18 0.17 96 1013.0
20260905161557 80 163 0.0 1.0 0.17 0.18 0.17 96 1012.9
20260905160044 80 151 0.0 2.0 0.17 0.18 0.17 95 1012.8
20260905154542 84 214 0.0 3.0 0.07 0.08 0.07 93 1012.7
20260905153039 88 238 0.0 1.0 0.00 0.01 0.00 79 1012.7
20260905151539 88 229 0.0 1.0 0.00 0.01 0.00 79 1012.8
20260905150039 88 229 0.0 3.0 0.00 0.01 0.00 80 1012.7
20260905144534 86 222 0.0 1.0 0.00 0.01 0.00 84 1012.7
20260905143036 86 219 0.0 1.0 0.00 0.01 0.00 84 1012.7
20260905141534 84 219 0.0 1.0 0.00 0.01 0.00 93 1012.7
20260905140025 82 219 0.0 2.0 0.00 0.01 0.00 98 1012.5
20260905134522 81 219 0.0 0.0 0.00 0.01 0.00 98 1012.4
20260905133020 80 219 0.0 0.0 0.00 0.01 0.00 98 1012.6
20260905131517 79 219 0.0 0.0 0.00 0.01 0.00 98 1012.5
20260905130016 78 219 0.0 0.0 0.00 0.01 0.00 98 1012.3
20260905124513 78 219 0.0 0.0 0.00 0.01 0.00 98 1012.1
20260905123017 78 219 0.0 0.0 0.00 0.01 0.00 98 1011.9
20260905121510 77 219 0.0 0.0 0.00 0.01 0.00 98 1011.8
20260905120009 77 219 0.0 0.0 0.00 0.01 0.00 98 1011.6
20260905114508 77 219 0.0 0.0 0.00 0.01 0.00 98 1011.4
20260905113008 77 219 0.0 0.0 0.00 0.01 0.00 98 1011.3
20260905111507 77 219 0.0 0.0 0.00 0.01 0.00 98 1011.1
20260905110007 77 219 0.0 0.0 0.00 0.01 0.00 98 1011.0
20260905104506 77 219 0.0 0.0 0.00 0.01 0.00 98 1010.9
20260905103006 77 219 0.0 0.0 0.00 0.01 0.00 98 1010.9
20260905101505 77 219 0.0 0.0 0.00 0.01 0.00 98 1010.9
20260905100005 77 219 0.0 0.0 0.00 0.01 0.00 98 1011.0
20260905094503 77 219 0.0 0.0 0.00 0.01 0.00 98 1011.0
20260905093003 77 219 0.0 0.0 0.00 0.01 0.00 98 1010.9
20260905091502 77 219 0.0 0.0 0.00 0.01 0.00 98 1011.0
20260905090001 77 219 0.0 0.0 0.00 0.01 0.00 98 1011.0
20260905084613 77 219 0.0 0.0 0.00 0.01 0.00 98 1010.7
20260905083059 77 219 0.0 0.0 0.00 0.01 0.00 98 1010.8
20260905081559 77 219 0.0 0.0 0.00 0.01 0.00 98 1010.7
20260905080107 77 219 0.0 0.0 0.00 0.01 0.00 98 1010.7
20260905074614 77 219 0.0 0.0 0.00 0.01 0.00 98 1010.8
20260905073058 77 219 0.0 0.0 0.00 0.01 0.00 98 1010.8
20260905071554 78 219 0.0 0.0 0.00 0.01 0.00 98 1011.2
20260905070107 78 219 0.0 0.0 0.00 0.01 0.00 98 1011.2
20260905064550 78 219 0.0 0.0 0.00 0.01 0.00 98 1011.3
20260905063048 78 219 0.0 0.0 0.00 0.01 0.00 98 1011.5
20260905061551 78 219 0.0 0.0 0.00 0.01 0.00 98 1011.7
20260905060046 78 219 0.0 0.0 0.00 0.01 0.00 98 1011.7
20260905054550 79 219 0.0 0.0 0.00 0.01 0.00 98 1011.7
20260905053046 79 219 0.0 0.0 0.00 0.01 0.00 98 1011.7
20260905051544 79 219 0.0 0.0 0.00 0.01 0.00 98 1011.7
20260905050046 79 219 0.0 0.0 0.00 0.01 0.00 98 1011.6
20260905044540 79 219 0.0 0.0 0.00 0.01 0.01 98 1011.7
20260905043041 79 219 0.0 0.0 0.00 0.01 0.01 98 1011.7
20260905041543 79 219 0.0 0.0 0.00 0.01 0.01 98 1011.9
20260905040036 79 219 0.0 0.0 0.00 0.01 0.01 98 1012.0
20260905034539 79 219 0.0 0.0 0.00 0.01 0.01 97 1012.0
20260905033046 79 219 0.0 0.0 0.00 0.01 0.01 97 1012.0
20260905031542 79 219 0.0 1.0 0.00 0.01 0.01 97 1012.1
20260905030045 80 170 0.0 1.0 0.00 0.01 0.01 97 1012.1
20260905024533 79 170 0.0 1.0 0.00 0.01 0.01 97 1012.1
20260905023034 79 170 0.0 0.0 0.01 0.01 0.01 97 1011.8
20260905021532 79 169 0.0 0.0 0.01 0.01 0.01 97 1011.6
20260905020031 79 162 0.0 0.0 0.01 0.01 0.01 96 1011.4
20260905014530 80 162 0.0 1.0 0.01 0.01 0.01 95 1011.3
20260905013030 84 210 0.0 1.0 0.00 0.00 0.00 83 1011.3
20260905011531 85 207 0.0 1.0 0.00 0.00 0.00 82 1011.1
20260905010029 85 200 0.0 4.0 0.00 0.00 0.00 81 1011.0
20260905004529 86 219 0.0 4.0 0.00 0.00 0.00 80 1010.8
20260905003030 86 203 2.0 5.0 0.00 0.00 0.00 80 1010.7
20260905001528 87 214 0.0 4.0 0.00 0.00 0.00 79 1010.8
20260905000027 88 191 1.0 6.0 0.00 0.00 0.00 79 1010.8
20260904234537 89 216 1.0 4.0 0.00 0.00 0.00 78 1010.6
20260904233031 89 214 0.0 1.0 0.00 0.00 0.00 79 1010.6
20260904231527 90 195 0.0 3.0 0.00 0.00 0.00 77 1010.7